Location: STAR School
(35.3054°N, 111.2976°W)
Time: 01:54:34
(UTC-07:00)

Courier 1B - All Passes

Search period start: 26 May 2019 00:00
Search period end: 05 June 2019 00:00
Orbit: 963 x 1209 km, 28.3° (Epoch: 25 May)

Date Brightness Start Highest point End Pass type
(mag) Time Alt. Az. Time Alt. Az. Time Alt. Az.
26 May - 04:32:14 10° SSW 04:37:29 24° SSE 04:42:34 10° ESE visible
26 May - 06:24:45 10° WSW 06:30:55 42° S 06:36:56 10° ESE daylight
26 May - 08:18:23 10° WSW 08:24:29 44° S 08:30:35 10° ESE daylight
26 May - 10:12:36 10° WSW 10:17:56 27° SSW 10:23:21 10° SE daylight
27 May - 03:39:10 10° SSW 03:43:53 20° SSE 03:48:27 10° ESE visible
27 May - 05:31:10 10° SW 05:37:18 38° SSE 05:43:14 10° ESE daylight
27 May - 07:24:39 10° WSW 07:30:52 46° S 07:37:00 10° ESE daylight
27 May - 09:18:43 10° WSW 09:24:21 32° SSW 09:30:03 10° SE daylight
27 May - 11:14:30 10° SW 11:17:37 14° SSW 11:20:45 10° S daylight
28 May - 02:46:27 10° S 02:50:17 15° SSE 02:54:02 10° ESE visible
28 May - 04:37:37 10° SW 04:43:41 34° SSE 04:49:29 10° ESE visible
28 May - 06:30:55 10° WSW 06:37:14 46° S 06:43:22 10° ESE daylight
28 May - 08:24:52 10° WSW 08:30:46 37° SSW 08:36:40 10° SE daylight
28 May - 10:19:53 10° WSW 10:24:04 18° SSW 10:28:19 10° SSE daylight
29 May - 01:54:31 10° S 01:56:41 11° SSE 01:58:48 10° SE visible
29 May - 03:44:09 10° SW 03:50:02 29° SSE 03:55:40 10° ESE visible
29 May - 05:37:11 10° WSW 05:43:36 45° S 05:49:45 10° ESE daylight
29 May - 07:31:03 10° WSW 07:37:11 42° S 07:43:11 10° ESE daylight
29 May - 09:25:38 10° WSW 09:30:33 23° SSW 09:35:28 10° SSE daylight
30 May - 02:50:50 10° SSW 02:56:24 24° SSE 03:01:44 10° ESE visible
30 May - 04:43:28 10° WSW 04:49:56 42° S 04:56:06 10° ESE visible
30 May - 06:37:14 10° WSW 06:43:34 45° S 06:49:41 10° ESE daylight
30 May - 08:31:35 10° WSW 08:37:01 28° SSW 08:42:23 10° SE daylight
30 May - 10:30:06 10° SSW 10:30:09 10° SSW 10:30:12 10° SSW daylight
31 May - 01:57:42 10° SSW 02:02:45 20° SSE 02:07:37 10° ESE visible
31 May - 03:49:46 10° SW 03:56:16 39° SSE 04:02:25 10° ESE visible
31 May - 05:43:24 10° WSW 05:49:55 47° S 05:56:08 10° ESE daylight
31 May - 07:37:36 10° WSW 07:43:26 33° SSW 07:49:09 10° SE daylight
31 May - 09:33:24 10° WSW 09:36:39 14° SSW 09:39:54 10° S daylight
01 Jun - 01:04:56 10° S 01:09:06 16° SSE 01:13:08 10° ESE visible
01 Jun - 02:56:09 10° SW 03:02:35 34° SSE 03:08:40 10° ESE visible
01 Jun - 04:49:34 10° WSW 04:56:14 47° S 05:02:34 10° ESE daylight
01 Jun - 06:43:40 10° WSW 06:49:51 39° SSW 06:55:48 10° SE daylight
01 Jun - 08:38:44 10° WSW 08:43:08 19° SSW 08:47:29 10° SSE daylight
02 Jun - 00:12:57 10° S 00:15:26 12° SSE 00:17:53 10° SE night (unlit)
02 Jun - 02:02:38 10° SW 02:08:53 30° SSE 02:14:50 10° ESE visible
02 Jun - 03:55:44 10° WSW 04:02:32 46° S 04:08:57 10° ESE visible
02 Jun - 05:49:44 10° WSW 05:56:13 43° S 06:02:23 10° ESE daylight
02 Jun - 07:44:25 10° WSW 07:49:36 24° SSW 07:54:40 10° SSE daylight
03 Jun - 01:09:16 10° SSW 01:15:10 25° SSE 01:20:50 10° ESE visible
03 Jun - 03:01:56 10° WSW 03:08:48 43° S 03:15:17 10° ESE visible
03 Jun - 04:55:49 10° WSW 05:02:33 47° S 05:08:53 10° ESE daylight
03 Jun - 06:50:17 10° WSW 06:56:03 30° SSW 07:01:37 10° SE daylight
03 Jun - 08:47:34 10° SW 08:49:11 11° SSW 08:50:47 10° SSW daylight
04 Jun - 00:16:09 10° SSW 00:21:28 20° SSE 00:26:38 10° ESE visible
04 Jun - 02:08:11 10° SW 02:15:03 39° SSE 02:21:34 10° E visible
04 Jun - 04:01:54 10° WSW 04:08:50 49° S 04:15:21 10° ESE visible
04 Jun - 05:56:13 10° W 06:02:28 36° SSW 06:08:24 10° SE daylight
04 Jun - 07:51:57 10° WSW 07:55:41 16° SSW 07:59:21 10° S daylight
04 Jun - 23:23:25 10° S 23:27:46 16° SSE 23:32:01 10° ESE night (unlit)
